EW4022 Weather Reports


Display with metric or nautical units.
time (UTC)temp
F
wind
direction
speed
MPH
gust
MPH
rain 1hr
in
rain 24hr
in
rain mn
in
humidity
%
barometer
mb
20260902000548 83 261 2.0 4.0 0.00 0.00 0.00 71 977.7
20260902000054 83 261 0.0 1.0 0.00 0.00 0.00 70 977.7
20260901235549 84 261 0.0 1.0 0.00 0.00 0.00 69 977.8
20260901235047 84 261 0.0 0.0 0.00 0.00 0.00 68 977.8
20260901234548 85 261 0.0 0.0 0.00 0.00 0.00 67 977.9
20260901234051 85 261 0.0 0.0 0.00 0.00 0.00 66 977.8
20260901233547 85 261 0.0 0.0 0.00 0.00 0.00 65 977.9
20260901233048 86 261 0.0 0.0 0.00 0.00 0.00 64 977.9
20260901232546 87 261 0.0 0.0 0.00 0.00 0.00 63 977.9
20260901232046 87 261 0.0 0.0 0.00 0.00 0.00 62 977.8
20260901231547 88 261 0.0 1.0 0.00 0.00 0.00 61 977.9
20260901231046 88 261 0.0 1.0 0.00 0.00 0.00 61 978.0
20260901230545 89 261 0.0 2.0 0.00 0.00 0.00 60 978.0
20260901230052 89 261 0.0 0.0 0.00 0.00 0.00 60 978.0
20260901225547 89 261 0.0 2.0 0.00 0.00 0.00 60 978.0
20260901225045 89 261 0.0 2.0 0.00 0.00 0.00 57 978.0
20260901224545 90 261 0.0 3.0 0.00 0.00 0.00 58 978.1
20260901224044 90 261 0.0 2.0 0.00 0.00 0.00 58 978.1
20260901223546 90 261 0.0 2.0 0.00 0.00 0.00 57 978.1
20260901223102 91 261 0.0 3.0 0.00 0.00 0.00 58 978.0
20260901222544 91 261 1.0 3.0 0.00 0.00 0.00 55 977.9
20260901222044 91 260 0.0 2.0 0.00 0.00 0.00 57 977.9
20260901221546 91 260 0.0 2.0 0.00 0.00 0.00 57 977.9
20260901221044 91 260 0.0 6.0 0.00 0.00 0.00 54 977.8
20260901220543 91 271 0.0 3.0 0.00 0.00 0.00 56 977.8
20260901220049 92 229 1.0 3.0 0.00 0.00 0.00 54 977.9
20260901215543 92 229 1.0 2.0 0.00 0.00 0.00 54 977.9
20260901215042 92 229 0.0 4.0 0.00 0.00 0.00 55 978.0
20260901214546 93 229 0.0 4.0 0.00 0.00 0.00 56 978.0
20260901214042 93 241 0.0 4.0 0.00 0.00 0.00 53 978.0
20260901213542 94 241 1.0 4.0 0.00 0.00 0.00 55 978.0
20260901213041 94 241 1.0 5.0 0.00 0.00 0.00 55 978.1
20260901212541 93 242 2.0 5.0 0.00 0.00 0.00 54 978.1
20260901212041 93 270 2.0 7.0 0.00 0.00 0.00 54 978.1
20260901211540 94 260 3.0 7.0 0.00 0.00 0.00 54 978.0
20260901211041 94 238 1.0 5.0 0.00 0.00 0.00 52 978.1
20260901210540 94 238 2.0 4.0 0.00 0.00 0.00 52 978.1
20260901210046 95 239 1.0 3.0 0.00 0.00 0.00 52 978.1
20260901205541 94 238 0.0 4.0 0.00 0.00 0.00 53 978.1
20260901205041 95 273 1.0 4.0 0.00 0.00 0.00 52 978.1
20260901204542 95 271 1.0 8.0 0.00 0.00 0.00 51 978.2
20260901204038 94 36 1.0 8.0 0.00 0.00 0.00 54 978.3
20260901203538 95 261 2.0 6.0 0.00 0.00 0.00 53 978.3
20260901203053 94 36 2.0 6.0 0.00 0.00 0.00 53 978.3
20260901202537 95 271 0.0 4.0 0.00 0.00 0.00 51 978.3
20260901202037 95 222 1.0 5.0 0.00 0.00 0.00 52 978.3
20260901201537 94 194 1.0 7.0 0.00 0.00 0.00 54 978.3
20260901201037 94 198 1.0 7.0 0.00 0.00 0.00 54 978.3
20260901200537 95 62 2.0 6.0 0.00 0.00 0.00 52 978.4
20260901200047 94 63 0.0 6.0 0.00 0.00 0.00 52 978.3
20260901195541 94 71 1.0 6.0 0.00 0.00 0.00 52 978.4
20260901195037 94 246 1.0 4.0 0.00 0.00 0.00 53 978.4
20260901194540 93 266 1.0 5.0 0.00 0.00 0.00 53 978.5
20260901194034 94 250 1.0 11.0 0.00 0.00 0.00 52 978.6
20260901193533 94 244 3.0 11.0 0.00 0.00 0.00 53 978.6
20260901193033 94 221 2.0 7.0 0.00 0.00 0.00 54 978.7
20260901192532 95 238 2.0 7.0 0.00 0.00 0.00 51 978.7
20260901192032 95 225 1.0 7.0 0.00 0.00 0.00 52 978.7
20260901191531 95 17 1.0 7.0 0.00 0.00 0.00 50 978.8
20260901191030 95 240 1.0 5.0 0.00 0.00 0.00 52 978.9
20260901190529 95 242 1.0 7.0 0.00 0.00 0.00 50 978.9
20260901190043 95 259 3.0 7.0 0.00 0.00 0.00 53 979.0
20260901185528 93 263 2.0 7.0 0.00 0.00 0.00 53 979.1
20260901185031 93 263 1.0 7.0 0.00 0.00 0.00 52 979.1
20260901184528 93 19 2.0 6.0 0.00 0.00 0.00 52 979.1
20260901184028 94 13 3.0 9.0 0.00 0.00 0.00 52 979.1
20260901183528 94 205 3.0 9.0 0.00 0.00 0.00 51 979.2
20260901183029 95 244 1.0 7.0 0.00 0.00 0.00 52 979.2
20260901182525 94 271 0.0 7.0 0.00 0.00 0.00 51 979.3
20260901182024 93 5 1.0 7.0 0.00 0.00 0.00 53 979.2
20260901181524 93 24 2.0 7.0 0.00 0.00 0.00 52 979.4
20260901181023 92 40 3.0 7.0 0.00 0.00 0.00 53 979.4
20260901180526 93 74 1.0 7.0 0.00 0.00 0.00 55 979.4
20260901180023 93 218 2.0 7.0 0.00 0.00 0.00 55 979.4
20260901175526 93 271 1.0 4.0 0.00 0.00 0.00 53 979.5
20260901175021 94 236 1.0 9.0 0.00 0.00 0.00 51 979.5
20260901174531 94 218 3.0 9.0 0.00 0.00 0.00 53 979.5
20260901174021 94 222 2.0 4.0 0.00 0.00 0.00 52 979.5
20260901173521 94 250 1.0 4.0 0.00 0.00 0.00 53 979.4
20260901173019 93 252 1.0 6.0 0.00 0.00 0.00 54 979.5
20260901172521 93 209 2.0 7.0 0.00 0.00 0.00 54 979.5
20260901172020 93 209 1.0 7.0 0.00 0.00 0.00 53 979.5
20260901171524 94 221 2.0 8.0 0.00 0.00 0.00 53 979.5
20260901171017 93 205 2.0 8.0 0.00 0.00 0.00 54 979.5
20260901170516 92 275 1.0 9.0 0.00 0.00 0.00 55 979.5
20260901170015 92 265 2.0 9.0 0.00 0.00 0.00 55 979.6
20260901165514 93 5 2.0 11.0 0.00 0.00 0.00 55 979.6
20260901165016 92 190 3.0 11.0 0.00 0.00 0.00 56 979.8
20260901164515 92 271 3.0 8.0 0.00 0.00 0.00 55 979.8
20260901164013 93 216 1.0 6.0 0.00 0.00 0.00 55 979.8
20260901163512 93 253 1.0 4.0 0.00 0.00 0.00 57 979.9
20260901163019 92 38 0.0 6.0 0.00 0.00 0.00 59 980.0
20260901162511 92 247 1.0 7.0 0.00 0.00 0.00 58 980.0
20260901162013 92 209 3.0 8.0 0.00 0.00 0.00 57 980.1
20260901161511 91 236 3.0 12.0 0.00 0.00 0.00 58 980.1
20260901161009 91 246 2.0 12.0 0.00 0.00 0.00 57 980.2
20260901160510 91 255 3.0 9.0 0.00 0.00 0.00 57 980.2
20260901160008 92 236 4.0 9.0 0.00 0.00 0.00 58 980.2
20260901155507 92 246 2.0 6.0 0.00 0.00 0.00 57 980.2
20260901155007 91 227 1.0 6.0 0.00 0.00 0.00 59 980.1
20260901154512 91 228 1.0 6.0 0.00 0.00 0.00 59 980.1
20260901154004 90 215 2.0 7.0 0.00 0.00 0.00 61 980.2
20260901153502 89 256 2.0 7.0 0.00 0.00 0.00 62 980.3
20260901153003 89 360 1.0 5.0 0.00 0.00 0.00 64 980.3
20260901152600 89 32 0.0 5.0 0.00 0.00 0.00 65 980.4
20260901152059 89 28 2.0 5.0 0.00 0.00 0.00 65 980.4
20260901151558 88 31 1.0 9.0 0.00 0.00 0.00 68 980.4
20260901151057 88 32 2.0 9.0 0.00 0.00 0.00 67 980.4
20260901150558 87 270 2.0 6.0 0.00 0.00 0.00 68 980.5
20260901150054 87 71 2.0 8.0 0.00 0.00 0.00 68 980.5
20260901145555 86 10 3.0 8.0 0.00 0.00 0.00 68 980.6
20260901145053 86 12 1.0 4.0 0.00 0.00 0.00 69 980.6
20260901144552 86 23 1.0 6.0 0.00 0.00 0.00 69 980.6
20260901144050 86 44 1.0 6.0 0.00 0.00 0.00 71 980.7
20260901143551 85 13 1.0 9.0 0.00 0.00 0.00 71 980.6
20260901143100 85 13 1.0 9.0 0.00 0.00 0.00 71 980.6
20260901142549 85 26 2.0 6.0 0.00 0.00 0.00 70 980.6
20260901142048 85 270 3.0 6.0 0.00 0.00 0.00 71 980.5
20260901141602 85 22 2.0 6.0 0.00 0.00 0.00 71 980.6
20260901141046 84 33 2.0 7.0 0.00 0.00 0.00 72 980.6
20260901140547 84 150 2.0 6.0 0.00 0.00 0.00 72 980.6
20260901140044 83 271 2.0 6.0 0.00 0.00 0.00 73 980.7
20260901135543 83 271 3.0 6.0 0.00 0.00 0.00 75 980.8
20260901135041 82 360 1.0 8.0 0.00 0.00 0.00 75 980.8
20260901134541 82 44 3.0 8.0 0.00 0.00 0.00 75 980.8
20260901134039 81 12 3.0 6.0 0.00 0.00 0.00 77 980.8
20260901133537 81 5 1.0 7.0 0.00 0.00 0.00 77 980.8
20260901133048 80 271 1.0 8.0 0.00 0.00 0.00 78 980.9
20260901132535 80 272 1.0 8.0 0.00 0.00 0.00 79 981.0
20260901132034 79 360 2.0 4.0 0.00 0.00 0.00 80 981.0
20260901131532 78 243 1.0 5.0 0.00 0.00 0.00 81 981.0
20260901131031 78 241 1.0 5.0 0.00 0.00 0.00 81 981.0
20260901130530 77 254 1.0 8.0 0.00 0.00 0.00 83 981.1
20260901130029 77 247 2.0 8.0 0.00 0.00 0.00 83 981.1
20260901125527 76 261 1.0 5.0 0.00 0.00 0.00 84 981.1
20260901125028 76 275 1.0 6.0 0.00 0.00 0.00 85 981.2
20260901124525 75 274 2.0 8.0 0.00 0.00 0.00 87 981.2
20260901124023 75 226 2.0 6.0 0.00 0.00 0.00 88 981.2
20260901123521 74 269 1.0 5.0 0.00 0.00 0.00 89 981.2
20260901123022 74 247 2.0 4.0 0.00 0.00 0.00 90 981.2
20260901122523 73 247 0.0 3.0 0.00 0.00 0.00 91 981.2
20260901122018 73 247 1.0 4.0 0.00 0.00 0.00 91 981.1
20260901121617 72 9 1.0 5.0 0.00 0.00 0.00 91 981.1
20260901121017 72 9 2.0 6.0 0.00 0.00 0.00 92 980.9
20260901120517 71 249 1.0 4.0 0.00 0.00 0.00 92 980.9
20260901120019 71 250 0.0 3.0 0.00 0.00 0.00 92 980.9
20260901115517 71 250 1.0 3.0 0.00 0.00 0.00 93 980.8
20260901115017 70 250 0.0 2.0 0.00 0.00 0.00 93 980.7
20260901114517 70 250 0.0 1.0 0.00 0.00 0.00 93 980.8
20260901114016 70 250 0.0 0.0 0.00 0.00 0.00 92 980.7
20260901113517 70 250 0.0 0.0 0.00 0.00 0.00 92 980.7
20260901113015 70 250 0.0 0.0 0.00 0.00 0.00 92 980.7
20260901112514 70 250 0.0 0.0 0.00 0.00 0.00 92 980.7
20260901112014 70 250 0.0 0.0 0.00 0.00 0.00 92 980.6
20260901111515 70 250 0.0 0.0 0.00 0.00 0.00 92 980.7
20260901111014 70 250 0.0 0.0 0.00 0.00 0.00 92 980.7
20260901110514 70 250 0.0 0.0 0.00 0.00 0.00 92 980.6
20260901110014 70 250 0.0 0.0 0.00 0.00 0.00 92 980.5
20260901105515 70 250 0.0 0.0 0.00 0.00 0.00 92 980.4
20260901105014 70 250 0.0 0.0 0.00 0.00 0.00 92 980.4
20260901104530 70 250 0.0 0.0 0.00 0.00 0.00 92 980.2
20260901104013 70 250 0.0 0.0 0.00 0.00 0.00 92 980.2
20260901103513 70 250 0.0 0.0 0.00 0.00 0.00 92 980.1
20260901103012 70 250 0.0 2.0 0.00 0.00 0.00 92 980.1
20260901102512 70 250 0.0 2.0 0.00 0.00 0.00 92 980.1
20260901102012 70 250 0.0 1.0 0.00 0.00 0.00 92 980.0
20260901101518 70 250 0.0 0.0 0.00 0.00 0.00 92 980.0
20260901101011 70 250 0.0 2.0 0.00 0.00 0.00 92 980.0
20260901100512 70 250 0.0 2.0 0.00 0.00 0.00 92 980.0
20260901100011 70 250 0.0 1.0 0.00 0.00 0.00 91 980.1
20260901095512 70 250 0.0 1.0 0.00 0.00 0.00 91 980.1
20260901095014 70 250 0.0 2.0 0.00 0.00 0.00 91 980.1
20260901094511 70 250 0.0 2.0 0.00 0.00 0.00 91 980.0
20260901094011 70 250 0.0 2.0 0.00 0.00 0.00 91 980.1
20260901093510 70 250 0.0 2.0 0.00 0.00 0.00 91 980.1
20260901093011 70 250 0.0 2.0 0.00 0.00 0.00 91 980.1
20260901092510 70 250 0.0 0.0 0.00 0.00 0.00 91 980.1
20260901092012 70 250 0.0 0.0 0.00 0.00 0.00 91 980.0
20260901091511 70 250 0.0 1.0 0.00 0.00 0.00 91 980.0
20260901091008 70 250 0.0 1.0 0.00 0.00 0.00 91 980.0
20260901090508 70 250 0.0 1.0 0.00 0.00 0.00 91 979.9
20260901090011 70 250 0.0 1.0 0.00 0.00 0.00 91 979.9
20260901085508 70 250 0.0 0.0 0.00 0.00 0.00 91 979.9
20260901085008 70 250 0.0 0.0 0.00 0.00 0.00 91 979.8
20260901084508 70 250 0.0 1.0 0.00 0.00 0.00 91 979.8
20260901084009 70 250 0.0 1.0 0.00 0.00 0.00 91 979.8
20260901083507 70 250 0.0 0.0 0.00 0.00 0.00 91 980.0
20260901083007 70 250 0.0 0.0 0.00 0.00 0.00 91 979.9
20260901082505 70 250 0.0 0.0 0.00 0.00 0.00 91 980.0
20260901082006 70 250 0.0 0.0 0.00 0.00 0.00 90 979.9
20260901081505 70 250 0.0 0.0 0.00 0.00 0.00 90 980.0
20260901081007 70 250 0.0 1.0 0.00 0.00 0.00 90 980.1
20260901080503 71 250 0.0 1.0 0.00 0.00 0.00 90 980.1
20260901080003 71 250 0.0 0.0 0.00 0.00 0.00 90 980.2
20260901075503 71 250 0.0 1.0 0.00 0.00 0.00 90 980.2
20260901075002 71 250 0.0 2.0 0.00 0.00 0.00 90 980.1
20260901074503 71 250 0.0 0.0 0.00 0.00 0.00 90 980.2
20260901074002 71 250 0.0 1.0 0.00 0.00 0.00 90 980.2
20260901073502 71 250 0.0 1.0 0.00 0.00 0.00 90 980.2
20260901073001 71 250 0.0 0.0 0.00 0.00 0.00 90 980.3
20260901072501 71 250 0.0 0.0 0.00 0.00 0.00 90 980.2
20260901072102 71 250 0.0 0.0 0.00 0.00 0.00 90 980.2
20260901071622 71 250 0.0 1.0 0.00 0.00 0.00 89 980.3
20260901071100 71 250 0.0 2.0 0.00 0.00 0.00 89 980.4
20260901070559 71 250 0.0 2.0 0.00 0.00 0.00 90 980.3
20260901070100 71 250 0.0 2.0 0.00 0.00 0.00 89 980.3
20260901065559 71 250 0.0 2.0 0.00 0.00 0.00 89 980.2
20260901065059 71 250 0.0 2.0 0.00 0.00 0.00 89 980.2
20260901064558 71 250 0.0 2.0 0.00 0.00 0.00 89 980.2
20260901064056 71 250 0.0 2.0 0.00 0.00 0.00 89 980.3
20260901063557 71 250 0.0 2.0 0.00 0.00 0.00 89 980.3
20260901063055 71 250 0.0 2.0 0.00 0.00 0.00 89 980.3
20260901062559 72 250 0.0 3.0 0.00 0.00 0.00 88 980.3
20260901062056 72 250 0.0 3.0 0.00 0.00 0.00 88 980.4
20260901061600 72 250 0.0 2.0 0.00 0.00 0.00 88 980.4
20260901061055 72 250 0.0 1.0 0.00 0.00 0.00 88 980.5
20260901060553 72 250 0.0 1.0 0.00 0.00 0.00 88 980.5
20260901060053 72 250 0.0 1.0 0.00 0.00 0.00 88 980.5
20260901055552 72 250 0.0 1.0 0.00 0.00 0.00 88 980.5
20260901055052 72 250 0.0 2.0 0.00 0.00 0.00 88 980.6
20260901054552 72 250 0.0 2.0 0.00 0.00 0.00 88 980.7
20260901054052 72 250 0.0 2.0 0.00 0.00 0.00 88 980.7
20260901053554 72 250 0.0 1.0 0.00 0.00 0.00 88 980.7
20260901053053 72 250 0.0 1.0 0.00 0.00 0.00 88 980.7
20260901052550 72 250 0.0 1.0 0.00 0.00 0.00 88 980.7
20260901052049 72 250 0.0 1.0 0.00 0.00 0.00 88 980.7
20260901051549 72 250 0.0 1.0 0.00 0.00 0.00 88 980.8
20260901051049 72 250 0.0 0.0 0.00 0.00 0.00 88 980.8
20260901050548 72 250 0.0 0.0 0.00 0.00 0.00 87 980.8
20260901050048 72 250 0.0 0.0 0.00 0.00 0.00 87 980.9
20260901045549 72 250 0.0 0.0 0.00 0.00 0.00 87 980.9
20260901045049 73 250 0.0 0.0 0.00 0.00 0.00 87 980.9
20260901044546 73 250 0.0 0.0 0.00 0.00 0.00 87 981.0
20260901044046 73 250 0.0 2.0 0.00 0.00 0.00 87 980.9
20260901043546 73 250 0.0 2.0 0.00 0.00 0.00 87 980.9
20260901043106 73 250 0.0 0.0 0.00 0.00 0.00 87 980.8
20260901042544 73 250 0.0 0.0 0.00 0.00 0.00 87 980.8
20260901042045 73 250 0.0 0.0 0.00 0.00 0.00 87 980.8
20260901041543 73 250 0.0 0.0 0.00 0.00 0.00 86 980.9
20260901041043 73 250 0.0 0.0 0.00 0.00 0.00 86 980.9
20260901040543 73 250 0.0 0.0 0.00 0.00 0.00 86 981.0
20260901040046 73 250 0.0 0.0 0.00 0.00 0.00 85 981.0
20260901035542 73 250 0.0 0.0 0.00 0.00 0.00 85 980.8
20260901035041 73 250 0.0 0.0 0.00 0.00 0.00 85 980.8
20260901034548 74 250 0.0 0.0 0.00 0.00 0.00 85 980.7
20260901034041 74 250 0.0 0.0 0.00 0.00 0.00 85 980.6
20260901033541 74 250 0.0 0.0 0.00 0.00 0.00 84 980.6
20260901033100 74 250 0.0 0.0 0.00 0.00 0.00 84 980.7
20260901032540 74 250 0.0 0.0 0.00 0.00 0.00 84 980.7
20260901032040 74 250 0.0 0.0 0.00 0.00 0.00 84 980.6
20260901031602 75 250 0.0 0.0 0.00 0.00 0.00 83 980.6
20260901031039 75 250 0.0 0.0 0.00 0.00 0.00 83 980.6
20260901030543 75 250 0.0 0.0 0.00 0.00 0.00 83 980.7
20260901030045 75 250 0.0 0.0 0.00 0.00 0.00 83 980.6
20260901025539 75 250 0.0 0.0 0.00 0.00 0.00 83 980.6
20260901025039 75 250 0.0 1.0 0.00 0.00 0.00 83 980.6
20260901024539 75 250 0.0 1.0 0.00 0.00 0.00 83 980.6
20260901024039 75 250 0.0 2.0 0.00 0.00 0.00 82 980.6
20260901023539 76 250 0.0 1.0 0.00 0.00 0.00 82 980.6
20260901023038 76 250 0.0 0.0 0.00 0.00 0.00 82 980.6
20260901022538 76 250 0.0 0.0 0.00 0.00 0.00 82 980.5
20260901022038 76 250 0.0 1.0 0.00 0.00 0.00 81 980.5
20260901021538 76 250 0.0 2.0 0.00 0.00 0.00 81 980.4
20260901021038 77 250 1.0 2.0 0.00 0.00 0.00 80 980.5
20260901020538 77 250 0.0 0.0 0.00 0.00 0.00 79 980.4
20260901020038 77 250 0.0 0.0 0.00 0.00 0.00 80 980.4
20260901015537 77 250 0.0 0.0 0.00 0.00 0.00 79 980.4
20260901015037 77 250 0.0 0.0 0.00 0.00 0.00 79 980.2
20260901014540 77 250 0.0 0.0 0.00 0.00 0.00 79 980.1
20260901014037 78 250 0.0 0.0 0.00 0.00 0.00 79 980.2
20260901013537 78 250 0.0 0.0 0.00 0.00 0.00 79 980.1
20260901013042 78 250 0.0 0.0 0.00 0.00 0.00 79 980.1
20260901012536 78 250 0.0 0.0 0.00 0.00 0.00 79 980.1
20260901012037 78 250 0.0 0.0 0.00 0.00 0.00 79 980.0
20260901011538 79 250 0.0 0.0 0.00 0.00 0.00 78 979.9
20260901011036 79 250 0.0 0.0 0.00 0.00 0.00 78 979.9
20260901010538 79 250 0.0 0.0 0.00 0.00 0.00 77 979.8
20260901010037 80 250 0.0 0.0 0.00 0.00 0.00 76 979.7
20260901005535 80 250 0.0 0.0 0.00 0.00 0.00 76 979.6
20260901005038 80 250 0.0 0.0 0.00 0.00 0.00 75 979.6
20260901004535 81 250 0.0 0.0 0.00 0.00 0.00 74 979.6
20260901004035 81 250 0.0 0.0 0.00 0.00 0.00 74 979.5
20260901003535 81 250 0.0 0.0 0.00 0.00 0.00 73 979.6
20260901003036 81 250 0.0 0.0 0.00 0.00 0.00 73 979.6
20260901002535 82 250 0.0 1.0 0.00 0.00 0.00 73 979.6
20260901002036 82 250 0.0 1.0 0.00 0.00 0.00 72 979.5
20260901001551 83 250 0.0 0.0 0.00 0.00 0.00 71 979.5
20260901001034 83 250 0.0 1.0 0.00 0.00 0.00 69 979.5